星链-36383(STARLINK-36383)

导读

STARLINK-36383是美国于2026年2月22日发射的星链系列卫星,隶属于SpaceX打造的星链卫星互联网项目。星链系统通过部署大规模低轨卫星组网,可为全球偏远地区、网络基础设施匮乏区域提供高速互联网接入服务,该卫星入轨后将进一步扩充星链星座规模,提升星座覆盖密度与服务稳定性。

基本信息
目录编号:
67922
目录名称:
STARLINK-36383
国际标识:
2026-036U
轨道中心:
EARTH
卫星名称:
星链-36383
卫星全名:
星链-36383(STARLINK-36383)
卫星状态:
已陨落 最后检测时间 2026-04-14
发射日期:
2026-02-22 UTC
国别 :
美国 (US)
星等 :
--
该卫星已列入 空间交会检测服务 Space Conjunction Data Service (SCDS) ,当前飞行风险评估等级: 无高风险
轨道信息
数据来源 国际轨道数据
星历时间: 2026-04-14T11:56:47+0800
轨道信息已过期152天
半长轴: 6578.415km
偏心率: 0.0005003
轨道倾角: 42.995°
近地点辐角 249.497°
升交点赤经 31.090°
平近点角 110.538°
近地点: 196.986km
远地点: 203.57km
周期: 88.500分钟
每日圈数: 16.271248
详细信息
固有亮度:
5
最大亮度:
2.5
卫星平台:
Starlink V1.0
覆盖范围:
全球
运营商:
太空探索技术公司
运营商所在国:
美国
制造商(研发单位):
太空探索技术公司
制造商所在国:
美国
使用方式:
暂无
卫星简介
Starlink 计划是 SpaceX 推出的全球卫星互联网项目,通过发射低轨道卫星,为全球尤其是偏远地区提供高速、低延迟的互联网服务。自 2019 年起,Starlink 已部署数千颗卫星,旨在缩小全球数字鸿沟,推动互联网普及。该项目还为军事、航空等行业提供通信支持,带来广泛经济效益。
与全量物体交会距离演化趋势
与全量物体交会风险概率演化趋势